This demonstration page uses our WeatherBlox Daily Observations layout. Learn more.

Left ArrowRight Arrow

34.02893, -84.19858

Hourly Observations for October 28, 2015

Temp ( °F °C ) Dew Point ( °F °C ) Humidity (%) Winds ( mph kmh ) Pressure ( in mb ) Visibility ( mi km ) Precip ( " mm )
12:53 am 00:53 Cloudy 55 12.8 55 12.8 100 100 ENE 7 11 29.93 1014 9 14 0.01 0.25
1:43 am 01:43 Cloudy with Light Rain 55 13 55 13 100 100 VRB 5 7 29.91 1013 3 4 0.00 0.00
1:53 am 01:53 Cloudy with Light Rain 55 12.8 55 12.8 100 100 VRB 3 6 29.90 1013 3 4 0.02 0.51
2:14 am 02:14 Cloudy with Light Rain 55 13 55 13 100 100 VRB 3 6 29.91 1013 3 5 0.00 0.00
2:30 am 02:30 Cloudy with Light Rain 55 13 55 13 100 100 E 6 9 29.91 1013 3 4 0.00 0.00
2:38 am 02:38 Cloudy with Light Rain 55 13 55 13 100 100 VRB 3 6 29.88 1012 3 5 0.00 0.00
2:53 am 02:53 Cloudy with Mist and Fog 56 13.3 56 13.3 100 100 VRB 5 7 29.89 1012 3 5 0.01 0.25
3:53 am 03:53 Cloudy 56 13.3 56 13.3 100 100 VRB 3 6 29.86 1011 9 14 0.01 0.25
4:24 am 04:24 Cloudy with Light Rain 56 13.3 56 13.3 100 100 VRB 3 6 29.85 1011 2 3 0.01 0.25
4:53 am 04:53 Cloudy with Light Rain 56 13.3 56 13.3 100 100 VRB 3 6 29.84 1011 2 3 0.02 0.51
5:01 am 05:01 Cloudy with Light Rain 56 13.3 56 13.3 100 100 E 5 7 29.83 1010 2 3 0.03 0.76
5:05 am 05:05 Cloudy with Light Rain 56 13.3 56 13.3 100 100 E 3 6 29.83 1010 2 3 0.04 1.02
5:18 am 05:18 Cloudy with Light Rain 55 13 55 13 100 100 E 5 7 29.83 1010 3 5 0.00 0.00
5:37 am 05:37 Cloudy with Rain 56 13.3 56 13.3 100 100 E 3 6 29.83 1010 3 4 0.07 1.78
5:53 am 05:53 Cloudy with Light Rain 57 13.9 57 13.9 100 100 E 5 7 29.82 1010 3 4 0.09 2.29
5:56 am 05:56 Cloudy with Light Rain 57 14 57 14 100 100 VRB 3 6 29.83 1010 3 5 0.00 0.00
6:29 am 06:29 Cloudy with Light Rain 57 13.9 57 13.9 100 100 E 3 6 29.83 1010 3 5 0.01 0.25
6:53 am 06:53 Cloudy with Mist and Fog 57 13.9 57 13.9 100 100 Calm 29.81 1010 3 5 0.02 0.51
7:53 am 07:53 Cloudy with Mist and Fog 59 15 59 15 100 100 VRB 3 6 29.81 1010 6 10 0.00 0.03
8:50 am 08:50 Cloudy with Mist and Fog 61 16 61 16 100 100 SSE 3 6 29.80 1009 1 1 0.00 0.00
8:53 am 08:53 Cloudy with Mist and Fog 61 16.1 61 16.1 100 100 SSE 3 6 29.81 1010 1 1 0.00 0.00
9:53 am 09:53 Cloudy with Mist and Fog 64 17.8 64 17.8 100 100 SSE 5 7 29.81 1010 1 1 0.00 0.00
10:00 am 10:00 Cloudy with Mist and Fog 64 18 64 18 100 100 S 6 9 29.80 1009 1 2 0.00 0.00
10:53 am 10:53 Cloudy with Mist and Fog 66 18.9 66 18.9 100 100 S 5 7 29.81 1009 2 3 0.00 0.00
11:53 am 11:53 Cloudy with Mist and Fog 68 20 67 19.4 96 96 SSW 6 9 29.79 1009 6 10 0.00 0.03
12:16 pm 12:16 Cloudy with Mist and Fog 69 20.6 69 20.6 100 100 SSW 8 13 29.77 1008 6 10 0.00 0.03
12:29 pm 12:29 Cloudy with Mist and Fog 69 20.6 68 20 96 96 SSW 9 15 29.77 1008 6 10 0.00 0.03
12:53 pm 12:53 Cloudy with Light Rain 69 20.6 67 19.4 93 93 SW 10 17 29.79 1009 6 10 0.03 0.76
1:00 pm 13:00 Cloudy with Light Rain 68 20 66 19 94 94 W 14 22 29.77 1008 6 10 0.00 0.00
1:34 pm 13:34 Cloudy with Light Rain 70 21 66 19 88 88 WSW 6 9 29.77 1008 10 16 0.00 0.00
1:53 pm 13:53 Cloudy 71 21.7 68 20 90 90 WSW 6 9 29.77 1008 10 16 0.08 2.03
2:53 pm 14:53 Mostly Cloudy 74 23.3 67 19.4 79 79 SW 9 15 29.74 1007 10 16 0.00 0.00
3:53 pm 15:53 Mostly Cloudy 74 23.3 64 17.8 71 71 WSW 12 19 29.73 1007 10 16 0.00 0.00
4:53 pm 16:53 Partly Cloudy 76 24.4 62 16.7 62 62 WSW 9 15 29.74 1007 10 16 0.00 0.00
5:53 pm 17:53 Mostly Cloudy 73 22.8 61 16.1 66 66 W 12 19 29.75 1008 10 16 0.00 0.00
6:53 pm 18:53 Clear 70 21.1 61 16.1 73 73 W 6 9 29.76 1008 10 16 0.00 0.00
7:53 pm 19:53 Clear 67 19.4 60 15.6 79 79 WSW 7 11 29.78 1009 10 16 0.00 0.00
8:53 pm 20:53 Clear 64 17.8 59 15 84 84 WSW 6 9 29.79 1009 10 16 0.00 0.00
9:53 pm 21:53 Clear 61 16.1 58 14.4 90 90 WSW 5 7 29.81 1009 10 16 0.00 0.00
10:53 pm 22:53 Clear 61 16.1 59 15 93 93 W 5 7 29.82 1010 10 16 0.00 0.00
11:53 pm 23:53 Clear 60 15.6 59 15 96 96 W 3 6 29.83 1010 10 16 0.00 0.00

Powered by AerisWeather